Weather History for Pampa, TX

Change the Weather History Date:

Thursday, February 7, 2013

  Actual Average Record
Temperature  
Mean Temperature 44 °F -  
Max Temperature 53 °F 44 °F 73 °F (2009)
Min Temperature 35 °F 20 °F 2 °F (1982)
Degree Days  
Heating Degree Days 21    
Moisture  
Dew Point 26 °F    
Average Humidity 54    
Maximum Humidity 87    
Minimum Humidity 28    
Precipitation  
Precipitation 0.00 in - - ()
Sea Level Pressure  
Sea Level Pressure 30.03 in    
Wind  
Wind Speed 16 mph (NNE)    
Max Wind Speed 32 mph    
Max Gust Speed 43 mph    
Visibility 10 miles    
Events      
Averages and records for this station are not official NWS values.
T = Trace of Precipitation, MM = Missing Value Source: NWS Daily Summary

Daily Weather History Graph

Daily Weather History Graph

Search for Another Location

Airport:

Trip Planner

Search our weather history database for the weather conditions in past years. The results will help you decide how hot, cold, wet, or windy it might be!

Date:

Astronomy

Feb. 07, 2013 Rise Set
Actual Time 7:38 AM CST 6:18 PM CST
Civil Twilight 7:12 AM CST 6:44 PM CST
Nautical Twilight 6:41 AM CST 7:14 PM CST
Astronomical Twilight 6:12 AM CST 7:44 PM CST
Moon 5:16 AM CST (2/7) 3:47 PM CST (2/7)
Length of Visible Light 11h 32m
Length of Day
10h 39m
Waning Crescent, 9% of the Moon is Illuminated
Feb 7
Waning Crescent
Feb 10
New
Feb 17
First Quarter
Feb 25
Full
Mar 4
Last Quarter

Hourly Weather History & Observations

Time (CST) Temp. Windchill Dew Point Humidity Pressure Visibility Wind Dir Wind Speed Gust Speed Precip Events Conditions
12:15 AM 41.0 °F 34.7 °F 32.0 °F 70% 29.76 in 10.0 mi SSE 10.4 mph - N/A   Clear
12:35 AM 42.8 °F 36.6 °F 33.8 °F 70% 29.76 in 10.0 mi SSE 11.5 mph - N/A   Clear
12:55 AM 41.0 °F 34.7 °F 33.8 °F 76% 29.76 in 10.0 mi SSE 10.4 mph - N/A   Clear
1:15 AM 41.0 °F 35.2 °F 33.8 °F 76% 29.76 in 10.0 mi SSE 9.2 mph - N/A   Clear
1:35 AM 41.0 °F 35.2 °F 33.8 °F 76% 29.76 in 10.0 mi SSE 9.2 mph - N/A   Clear
1:55 AM 39.2 °F 35.0 °F 32.0 °F 75% 29.76 in 10.0 mi SSW 5.8 mph - N/A   Clear
2:15 AM 41.0 °F 38.0 °F 32.0 °F 70% 29.76 in 10.0 mi West 4.6 mph - N/A   Clear
2:35 AM 37.4 °F 32.8 °F 30.2 °F 75% 29.78 in 10.0 mi WNW 5.8 mph - N/A   Clear
2:55 AM 37.4 °F 30.3 °F 28.4 °F 70% 29.79 in 10.0 mi NNW 10.4 mph - N/A   Clear
3:15 AM 37.4 °F 29.8 °F 28.4 °F 70% 29.80 in 10.0 mi NNW 11.5 mph - N/A   Clear
3:35 AM 35.6 °F 28.0 °F 30.2 °F 81% 29.81 in 10.0 mi NW 10.4 mph - N/A   Clear
3:55 AM 37.4 °F 28.5 °F 33.8 °F 87% 29.81 in 10.0 mi NW 15.0 mph - N/A   Clear
4:15 AM 37.4 °F 28.2 °F 33.8 °F 87% 29.82 in 10.0 mi NW 16.1 mph - N/A   Clear
4:35 AM 41.0 °F 32.5 °F 35.6 °F 81% 29.84 in 7.0 mi NNW 17.3 mph 26.5 mph N/A   Scattered Clouds
4:55 AM 42.8 °F 33.1 °F 37.4 °F 81% 29.84 in 7.0 mi North 25.3 mph 35.7 mph N/A   Mostly Cloudy
5:15 AM 42.8 °F 32.3 °F 32.0 °F 66% 29.85 in 10.0 mi North 29.9 mph 42.6 mph N/A   Overcast
5:35 AM 42.8 °F 32.1 °F 28.4 °F 57% 29.86 in 10.0 mi North 31.1 mph 42.6 mph N/A   Overcast
5:55 AM 42.8 °F 32.3 °F 28.4 °F 57% 29.87 in 10.0 mi North 29.9 mph 40.3 mph N/A   Overcast
6:15 AM 42.8 °F 32.5 °F 28.4 °F 57% 29.89 in 10.0 mi North 28.8 mph 34.5 mph N/A   Overcast
6:35 AM 42.8 °F 33.3 °F 26.6 °F 53% 29.91 in 10.0 mi North 24.2 mph 33.4 mph N/A   Overcast
6:55 AM 41.0 °F 29.8 °F 26.6 °F 57% 29.92 in 10.0 mi North 29.9 mph 34.5 mph N/A   Scattered Clouds
7:15 AM 41.0 °F 30.0 °F 26.6 °F 57% 29.94 in 10.0 mi North 28.8 mph 35.7 mph N/A   Scattered Clouds
7:35 AM 41.0 °F 30.9 °F 26.6 °F 57% 29.96 in 10.0 mi North 24.2 mph 34.5 mph N/A   Mostly Cloudy
7:55 AM 41.0 °F 31.1 °F 28.4 °F 61% 29.99 in 10.0 mi North 23.0 mph 27.6 mph N/A   Mostly Cloudy
8:15 AM 41.0 °F 31.6 °F 28.4 °F 61% 30.00 in 10.0 mi North 20.7 mph 32.2 mph N/A   Mostly Cloudy
8:35 AM 41.0 °F 31.6 °F 28.4 °F 61% 30.01 in 10.0 mi North 20.7 mph 29.9 mph N/A   Scattered Clouds
8:55 AM 41.0 °F 30.9 °F 28.4 °F 61% 30.02 in 10.0 mi North 24.2 mph 32.2 mph N/A   Scattered Clouds
9:35 AM 42.8 °F 32.7 °F 30.2 °F 61% 30.03 in 10.0 mi North 27.6 mph 39.1 mph N/A   Clear
9:55 AM 42.8 °F 32.1 °F 30.2 °F 61% 30.04 in 10.0 mi North 31.1 mph 36.8 mph N/A   Clear
10:15 AM 44.6 °F 34.7 °F 28.4 °F 53% 30.05 in 10.0 mi North 29.9 mph 40.3 mph N/A   Scattered Clouds
10:35 AM 44.6 °F 34.4 °F 28.4 °F 53% 30.06 in 10.0 mi North 32.2 mph 41.4 mph N/A   Scattered Clouds
10:55 AM 44.6 °F 34.7 °F 28.4 °F 53% 30.08 in 10.0 mi North 29.9 mph 38.0 mph N/A   Clear
11:15 AM 46.4 °F 37.2 °F 28.4 °F 50% 30.08 in 10.0 mi North 29.9 mph 38.0 mph N/A   Clear
11:35 AM 46.4 °F 37.9 °F 26.6 °F 46% 30.09 in 10.0 mi North 25.3 mph 35.7 mph N/A   Clear
11:55 AM 46.4 °F 37.5 °F 26.6 °F 46% 30.09 in 10.0 mi North 27.6 mph 33.4 mph N/A   Clear
12:15 PM 48.2 °F - 24.8 °F 40% 30.10 in 10.0 mi NNE 24.2 mph 36.8 mph N/A   Clear
12:35 PM 50.0 °F - 23.0 °F 35% 30.09 in 10.0 mi North 29.9 mph 35.7 mph N/A   Clear
12:55 PM 51.8 °F - 23.0 °F 33% 30.10 in 10.0 mi NNE 21.9 mph 32.2 mph N/A   Clear
1:15 PM 51.8 °F - 21.2 °F 30% 30.09 in 10.0 mi North 27.6 mph 35.7 mph N/A   Clear
1:35 PM 51.8 °F - 21.2 °F 30% 30.09 in 10.0 mi NNE 25.3 mph 35.7 mph N/A   Clear
1:55 PM 51.8 °F - 21.2 °F 30% 30.09 in 10.0 mi NNE 26.5 mph 38.0 mph N/A   Clear
2:35 PM 51.8 °F - 21.2 °F 30% 30.08 in 10.0 mi NNE 28.8 mph 36.8 mph N/A   Clear
2:55 PM 53.6 °F - 21.2 °F 28% 30.08 in 10.0 mi NNE 26.5 mph 32.2 mph N/A   Clear
3:15 PM 53.6 °F - 21.2 °F 28% 30.08 in 10.0 mi NNE 21.9 mph 31.1 mph N/A   Clear
3:35 PM 53.6 °F - 21.2 °F 28% 30.09 in 10.0 mi NNE 19.6 mph 27.6 mph N/A   Clear
3:55 PM 53.6 °F - 21.2 °F 28% 30.10 in 10.0 mi NNE 21.9 mph 28.8 mph N/A   Clear
4:15 PM 53.6 °F - 21.2 °F 28% 30.10 in 10.0 mi NNE 20.7 mph 26.5 mph N/A   Clear
4:35 PM 53.6 °F - 21.2 °F 28% 30.11 in 10.0 mi NNE 13.8 mph 24.2 mph N/A   Clear
4:55 PM 51.8 °F - 23.0 °F 33% 30.11 in 10.0 mi NE 18.4 mph - N/A   Clear
5:15 PM 51.8 °F - 23.0 °F 33% 30.12 in 10.0 mi North 16.1 mph 20.7 mph N/A   Clear
5:35 PM 51.8 °F - 23.0 °F 33% 30.13 in 10.0 mi NNE 13.8 mph - N/A   Clear
5:55 PM 50.0 °F - 23.0 °F 35% 30.14 in 10.0 mi NNE 10.4 mph - N/A   Clear
6:15 PM 46.4 °F 41.1 °F 23.0 °F 40% 30.14 in 10.0 mi North 11.5 mph - N/A   Clear
6:35 PM 44.6 °F 40.2 °F 23.0 °F 43% 30.16 in 10.0 mi North 8.1 mph - N/A   Clear
6:55 PM 41.0 °F 35.2 °F 23.0 °F 49% 30.16 in 10.0 mi North 9.2 mph - N/A   Clear
7:15 PM 39.2 °F 32.5 °F 23.0 °F 52% 30.17 in 10.0 mi North 10.4 mph - N/A   Clear
7:35 PM 37.4 °F 31.4 °F 23.0 °F 56% 30.18 in 10.0 mi North 8.1 mph - N/A   Clear
7:55 PM 35.6 °F 28.6 °F 23.0 °F 60% 30.18 in 10.0 mi North 9.2 mph - N/A   Clear
8:15 PM 35.6 °F 28.6 °F 23.0 °F 60% 30.19 in 10.0 mi North 9.2 mph - N/A   Clear
8:35 PM 37.4 °F 32.1 °F 23.0 °F 56% 30.19 in 10.0 mi North 6.9 mph - N/A   Clear
8:55 PM 35.6 °F 29.9 °F 23.0 °F 60% 30.21 in 10.0 mi NNE 6.9 mph - N/A   Clear
9:15 PM 35.6 °F 30.7 °F 23.0 °F 60% 30.21 in 10.0 mi NNE 5.8 mph - N/A   Clear
9:35 PM 37.4 °F 33.8 °F 23.0 °F 56% 30.21 in 10.0 mi NNE 4.6 mph - N/A   Clear
9:55 PM 35.6 °F 32.8 °F 21.2 °F 56% 30.21 in 10.0 mi NNE 3.5 mph - N/A   Clear
10:15 PM 37.4 °F 34.9 °F 21.2 °F 52% 30.22 in 10.0 mi ENE 3.5 mph - N/A   Clear
10:35 PM 39.2 °F 37.0 °F 21.2 °F 49% 30.22 in 10.0 mi ENE 3.5 mph - N/A   Clear
10:55 PM 39.2 °F 37.0 °F 21.2 °F 49% 30.22 in 10.0 mi ENE 3.5 mph - N/A   Clear
11:15 PM 39.2 °F 35.0 °F 21.2 °F 49% 30.22 in 10.0 mi ENE 5.8 mph - N/A   Clear
11:35 PM 37.4 °F 33.8 °F 21.2 °F 52% 30.22 in 10.0 mi East 4.6 mph - N/A   Clear
11:55 PM 35.6 °F - 19.4 °F 52% 30.22 in 10.0 mi Calm Calm - N/A   Clear